GEFSNE_500_meanwind_078.txt.gz
Wind_Speed
40 40 41 41 41 41 41 42 42 43 44 44 43 43 43 42 43 42 41 41 42 43 43 44 44 42 42 42 42 40 37 35 32 31 29 26 25 24
40 40 40 41 42 42 42 42 42 43 44 45 45 45 44 43 43 43 42 40 41 43 42 44 44 43 42 42 42 41 38 35 32 31 29 27 25 24
40 40 40 41 42 42 43 43 43 43 43 44 45 45 45 44 42 43 43 41 41 42 42 43 43 43 42 41 41 41 39 36 33 31 30 28 26 24
39 39 40 41 41 42 43 44 44 44 44 45 45 45 45 45 43 43 44 44 43 43 43 43 43 43 43 42 41 41 40 37 34 32 31 29 27 25
39 39 40 40 41 42 43 44 45 45 45 46 46 46 46 46 44 44 44 44 45 45 43 44 44 43 43 43 43 42 40 38 36 35 32 30 28 27
38 39 40 41 41 42 43 44 45 46 46 47 47 47 47 47 46 45 44 43 44 46 44 44 44 44 44 44 44 43 42 40 38 36 33 31 29 27
37 38 39 41 42 43 44 45 45 46 47 48 48 48 48 48 48 46 45 44 43 45 45 45 44 45 46 45 45 44 43 42 39 38 35 33 30 28
35 36 37 38 40 42 43 45 47 47 48 49 50 50 50 49 50 49 47 46 45 44 46 46 45 44 47 47 46 46 44 43 41 39 37 34 32 29
34 35 36 36 38 40 42 43 44 46 48 49 50 51 51 51 51 50 51 48 47 46 46 47 47 47 47 48 48 48 46 44 43 40 38 36 34 31
34 34 35 36 37 38 39 41 42 44 47 49 50 51 51 52 53 51 51 50 49 48 47 47 47 47 47 48 48 47 46 45 44 42 39 38 36 33
33 33 34 35 36 37 38 38 39 41 44 47 49 51 52 52 54 53 53 52 49 48 48 47 47 47 47 48 49 48 47 46 45 43 41 39 37 35
30 31 31 32 34 34 35 37 37 39 42 45 47 50 52 53 54 55 53 52 51 50 48 47 47 48 48 48 49 48 47 47 46 44 42 40 38 36
27 28 29 29 30 31 33 35 36 38 40 42 45 47 50 53 54 55 54 52 52 52 49 48 47 48 48 48 48 48 47 47 47 45 44 42 40 37
26 26 27 27 28 29 30 33 35 37 39 41 43 45 48 51 53 54 54 53 51 53 52 50 48 47 49 49 48 48 48 47 47 46 45 43 41 39
25 25 24 24 24 25 28 31 34 36 38 40 42 44 46 49 50 52 54 55 52 52 51 51 49 49 50 51 50 49 48 48 47 46 45 44 42 40
23 22 20 19 19 21 23 26 29 33 36 39 41 43 45 47 49 50 51 54 53 51 51 50 50 49 48 50 51 49 48 48 48 47 46 44 43 41
22 19 17 16 15 15 17 20 23 28 32 35 39 42 44 46 47 49 49 50 53 52 51 51 50 50 50 50 49 49 47 47 46 46 46 45 43 42
19 16 14 12 10 10 12 15 19 22 27 31 35 39 42 44 46 46 47 47 50 51 49 48 49 49 48 49 50 49 47 46 45 45 45 45 43 41
17 14 12 9 8 8 9 12 15 19 23 29 32 35 38 41 43 44 44 45 46 48 48 47 47 48 48 48 50 50 47 46 45 44 44 44 43 41
16 13 10 8 7 7 7 9 12 16 20 25 30 32 35 37 40 42 42 42 43 44 46 46 46 46 46 47 47 47 46 45 45 44 43 43 43 41
15 12 9 7 6 6 6 8 11 15 19 23 27 29 32 34 35 38 40 41 42 42 44 45 45 45 45 45 45 45 45 45 45 45 43 42 42 41
13 11 8 6 5 5 6 8 11 14 19 22 25 28 29 31 33 35 37 38 39 40 42 42 43 43 43 44 44 44 44 44 44 43 42 41 40 40
12 9 7 5 4 4 5 8 10 13 17 21 24 26 29 31 33 33 35 36 38 39 40 41 41 42 42 43 43 43 43 43 43 43 42 40 40 40

GEFSNE_500_meanwind_084.txt.gz
Wind_Speed
38 38 39 39 39 39 39 40 40 39 39 40 41 40 40 41 41 40 40 40 41 41 41 40 40 40 40 41 42 43 44 43 41 39 38 36 34 31
40 40 40 40 40 40 40 41 41 41 40 40 42 42 42 42 42 41 40 40 40 41 41 41 40 41 41 41 41 42 43 43 42 40 39 37 35 33
39 39 40 40 40 41 41 41 41 41 41 40 42 42 42 42 42 42 41 41 41 41 41 41 40 40 40 42 42 42 43 43 43 42 41 39 37 34
37 38 38 39 40 41 41 41 41 41 41 41 41 42 41 41 42 42 42 42 41 41 41 41 40 40 40 41 42 43 43 44 42 42 42 40 38 35
35 36 36 37 38 39 40 41 41 41 41 41 41 41 42 42 41 42 42 43 42 42 42 41 41 41 41 41 42 42 42 43 42 42 41 41 39 36
34 35 35 36 36 37 38 39 40 40 40 41 41 41 41 42 42 41 42 43 43 42 42 41 40 41 41 41 41 42 42 42 42 42 41 41 39 37
34 34 34 34 34 35 37 38 39 39 40 40 40 41 41 41 42 42 41 42 43 42 42 42 41 41 42 41 40 41 41 41 42 42 40 40 39 38
33 33 33 33 33 34 35 36 38 38 39 40 40 41 41 41 42 42 41 41 42 42 42 42 41 41 41 41 40 41 42 41 42 42 41 40 40 40
33 33 33 33 32 33 33 35 36 38 39 40 40 40 41 41 42 42 42 42 42 42 43 42 41 40 41 41 42 42 43 42 42 42 42 42 41 40
32 32 32 32 32 33 33 34 35 37 39 40 40 41 42 42 42 42 43 42 42 42 43 42 41 40 40 41 43 43 42 42 42 42 43 42 42 41
32 32 31 31 32 33 33 34 35 37 38 39 39 40 41 42 42 42 43 43 42 42 42 42 42 42 41 40 41 43 43 43 43 43 44 43 43 42
32 31 31 31 31 31 31 32 32 34 35 36 37 38 40 41 42 42 42 43 43 43 42 41 41 42 41 41 40 41 42 44 44 45 45 45 44 43
31 31 31 30 30 29 29 30 30 31 32 34 35 36 38 39 41 42 42 43 43 44 43 42 42 42 41 41 40 40 40 42 44 45 46 46 45 44
31 30 30 30 29 28 28 28 29 29 30 31 33 34 35 37 38 40 42 43 44 44 44 42 41 43 42 40 39 39 40 41 42 43 45 47 46 44
30 30 29 28 27 27 27 27 27 27 28 29 30 31 32 34 37 38 40 42 44 44 44 43 41 41 42 40 39 39 39 41 42 43 44 48 48 45
29 29 28 27 27 26 26 25 25 24 26 27 28 29 31 33 34 37 38 40 43 44 44 43 41 40 41 41 40 39 39 39 41 43 43 47 48 45
29 28 27 26 25 24 23 22 22 22 22 24 26 27 29 31 32 34 37 38 41 42 43 43 42 40 40 40 41 40 41 40 40 41 42 44 46 46
29 27 26 25 23 22 20 20 19 19 20 21 22 25 27 30 32 33 35 37 38 40 41 42 41 41 40 40 40 40 41 40 40 41 42 45 46 46
28 26 24 23 22 20 18 17 16 17 17 18 20 23 26 28 30 32 34 35 37 38 39 41 41 40 39 40 40 40 41 40 40 41 42 45 46 45
27 25 23 21 19 18 17 15 15 15 15 16 18 20 23 26 28 30 33 34 36 37 38 39 38 38 38 38 39 40 40 39 40 41 41 44 45 45
25 24 22 20 19 17 16 15 14 13 13 15 16 18 21 23 26 29 32 34 35 35 36 36 36 37 39 38 38 39 40 39 39 40 42 43 44 44
24 23 21 19 17 16 14 13 12 11 12 13 14 16 19 21 24 28 30 32 34 34 34 35 35 36 37 37 37 39 39 38 38 38 40 42 42 43
22 22 20 18 16 14 13 12 11 11 10 11 13 15 16 19 23 26 28 31 32 33 33 34 35 36 36 37 36 37 39 39 38 38 38 40 40 41

GEFSNE_500_meanwind_090.txt.gz
Wind_Speed
32 32 33 35 36 37 38 38 39 39 39 40 40 40 40 40 40 41 41 42 43 43 43 43 43 42 42 41 40 39 39 40 40 40 40 39 37 35
32 33 33 34 35 36 37 38 39 39 39 41 42 42 42 41 41 41 42 43 43 44 44 44 43 44 43 42 42 41 40 40 40 41 41 40 39 38
33 33 33 33 33 34 35 36 37 38 38 40 43 43 43 43 43 43 43 44 45 45 45 45 45 44 44 43 43 43 42 41 41 42 42 41 41 39
34 33 33 32 32 33 33 34 35 36 37 37 40 43 44 44 43 43 44 45 46 46 46 46 46 45 45 45 44 44 43 42 42 42 43 43 42 41
33 33 33 32 32 33 33 33 33 34 35 36 38 41 42 43 44 44 45 45 46 46 47 47 47 47 46 46 45 45 44 43 43 43 44 44 44 42
34 34 33 33 33 33 33 33 33 34 35 35 36 38 40 42 43 43 44 45 46 47 47 48 48 47 47 46 46 45 45 44 44 44 44 45 45 44
35 35 34 33 33 32 33 33 34 34 34 34 35 36 38 40 42 42 43 44 45 47 47 47 48 48 48 48 47 46 45 45 45 45 44 45 45 45
35 35 34 33 32 32 32 33 33 33 34 34 34 35 36 39 41 42 42 43 44 46 47 47 48 48 48 48 47 47 47 46 46 46 46 46 46 45
35 34 34 33 32 32 31 32 33 33 33 33 34 35 36 38 40 41 43 43 44 45 45 46 47 48 48 48 47 47 47 47 47 46 46 46 46 46
35 34 33 33 32 32 32 32 32 33 34 34 33 34 36 37 39 40 41 42 43 44 45 45 46 47 48 48 48 47 47 46 46 46 46 45 46 46
35 34 33 32 32 31 31 31 31 33 34 34 33 34 35 36 37 39 40 41 42 43 44 44 45 47 48 48 48 47 47 47 47 47 46 46 46 47
35 34 33 32 32 31 30 30 31 32 32 33 32 33 34 36 37 38 39 41 41 42 43 43 44 46 46 48 48 48 47 47 47 47 47 47 47 46
35 34 33 32 31 31 30 30 30 30 31 31 32 32 33 34 36 38 39 40 41 42 43 43 43 45 45 46 48 48 48 47 47 46 47 47 47 46
34 33 32 31 31 30 30 30 30 29 29 29 30 31 31 33 34 36 37 39 40 41 43 44 43 44 45 46 47 48 47 47 46 46 47 47 47 47
34 32 31 31 30 30 30 30 29 28 28 28 28 29 30 32 33 35 37 38 39 40 42 43 43 44 44 44 45 47 47 47 46 45 45 46 47 47
33 32 32 31 30 30 30 29 28 28 27 27 27 28 29 30 31 32 34 37 38 39 41 43 44 44 44 44 44 45 46 47 46 45 45 45 46 47
33 32 31 31 30 30 29 28 27 27 26 25 25 25 26 27 28 30 32 34 36 38 40 42 43 44 44 44 44 44 43 45 45 45 45 45 46 46
33 32 30 30 30 29 27 27 26 25 24 23 23 23 24 25 26 28 30 32 34 37 39 41 42 42 44 44 44 44 44 43 44 44 45 45 44 45
32 31 30 30 29 28 26 26 25 23 22 21 21 20 21 22 24 26 28 30 32 35 38 40 41 41 42 42 42 42 43 42 42 42 43 43 43 44
31 30 29 29 28 27 26 24 23 21 20 20 19 19 19 20 22 23 25 27 30 34 36 38 39 40 40 41 41 41 42 41 41 41 42 42 43 44
30 29 29 28 27 26 25 23 21 20 20 19 18 18 18 19 20 21 23 26 28 32 34 36 37 39 41 41 40 40 41 41 40 41 41 41 42 43
29 28 28 27 26 25 24 23 21 20 19 18 17 17 17 17 19 20 21 23 27 29 32 34 37 38 40 40 39 39 39 40 41 41 41 41 42 42
28 27 27 26 24 23 22 21 19 18 17 16 16 15 15 16 17 19 20 22 25 28 30 33 35 36 38 39 39 39 39 38 39 40 41 41 42 42

GEFSNE_500_meanwind_096.txt.gz
Wind_Speed
27 27 27 27 27 27 28 28 29 30 33 35 37 38 38 39 40 41 41 42 43 44 44 44 44 43 44 44 43 43 42 42 42 42 41 40 39 38
28 29 29 29 28 28 28 29 29 30 31 34 37 38 39 40 41 42 43 44 44 45 45 46 46 45 45 46 46 45 44 44 43 42 42 42 41 40
30 30 30 29 29 29 29 30 30 30 30 32 35 37 38 39 40 42 44 45 45 46 47 47 47 47 47 47 47 46 46 45 44 44 44 44 43 42
31 31 31 31 31 30 30 31 31 31 31 31 34 36 37 38 39 40 42 44 46 47 48 48 48 49 48 48 48 47 47 47 46 45 45 45 45 44
32 32 32 32 32 32 32 32 32 32 31 31 33 35 36 38 38 39 40 43 45 46 48 49 49 50 50 49 49 49 48 48 48 47 47 46 46 46
33 33 33 33 33 33 33 33 33 32 32 32 32 34 36 37 38 38 39 41 43 46 47 49 50 50 51 51 50 50 50 50 49 49 48 47 47 47
35 35 35 35 34 34 34 33 33 33 33 33 32 33 35 37 38 38 38 40 41 44 46 48 49 50 51 51 51 51 51 51 50 50 49 49 48 47
36 37 36 36 35 35 34 34 34 33 33 33 33 33 34 36 38 38 38 39 40 42 45 47 49 50 51 51 51 52 51 52 52 51 50 50 49 49
38 38 37 37 36 35 34 34 34 34 34 33 33 33 34 35 37 37 38 38 39 41 43 45 48 49 50 51 52 52 52 52 52 52 51 51 50 50
39 38 38 38 37 36 35 35 35 34 34 33 32 33 34 35 36 37 38 39 39 41 42 44 46 48 50 51 51 52 52 52 52 52 52 52 52 51
40 40 39 38 37 36 36 35 35 35 34 33 32 32 33 35 36 36 37 38 39 40 42 43 45 47 48 50 51 52 52 53 52 52 52 52 52 52
42 41 40 39 38 38 37 36 35 34 35 34 33 33 33 34 35 36 36 37 37 38 41 43 44 46 47 49 51 52 52 53 53 52 52 52 52 52
43 42 41 40 39 38 37 36 35 35 34 34 33 34 34 34 35 36 36 37 37 37 40 42 43 44 45 47 49 51 52 52 52 52 52 52 52 52
43 43 42 41 40 39 38 37 36 35 35 34 34 34 34 34 34 35 36 36 37 38 40 41 42 43 44 45 47 49 50 51 51 51 51 51 52 52
45 44 42 42 41 40 39 38 36 35 35 34 33 33 34 34 35 35 35 35 36 36 38 40 41 42 43 43 45 47 49 49 50 50 51 52 52 51
45 44 43 42 41 40 39 38 37 36 35 34 33 33 34 34 34 34 34 34 34 35 36 38 39 40 41 42 44 45 47 48 48 49 49 50 52 51
46 44 44 43 41 40 38 37 36 35 34 33 32 32 33 33 33 32 32 32 32 33 35 36 38 39 40 41 41 42 45 46 47 48 48 49 50 51
46 45 44 42 40 39 37 36 35 35 33 32 32 31 31 31 31 31 30 30 30 30 32 34 35 36 37 38 39 41 42 44 46 47 46 47 48 49
47 45 43 42 40 38 36 35 34 34 33 32 31 30 30 30 29 29 29 28 27 28 29 31 32 34 35 36 37 39 40 43 44 45 45 46 46 47
46 44 43 41 38 36 35 34 33 32 32 31 30 30 29 29 28 27 27 26 26 26 27 28 29 31 33 35 37 38 39 40 42 43 44 44 44 45
45 43 41 39 37 35 34 33 32 31 31 30 29 28 28 27 26 26 26 25 25 25 25 26 27 29 31 33 35 36 37 38 39 41 42 42 42 42
43 41 39 37 35 34 33 31 30 30 30 28 28 27 26 25 24 24 24 24 23 23 24 25 26 27 28 30 32 34 35 36 38 38 39 40 41 40
41 39 37 35 34 33 31 30 29 28 28 27 26 25 24 24 23 22 22 22 22 22 22 23 24 24 26 28 30 32 34 34 36 38 38 39 39 39

GEFSNE_500_meanwind_102.txt.gz
Wind_Speed
20 20 21 21 22 22 23 23 24 25 26 27 27 27 28 29 31 33 34 36 38 39 39 40 40 41 41 43 43 42 42 42 42 41 41 41 42 42
21 22 22 23 23 24 24 25 25 26 26 28 29 29 29 29 30 32 34 35 37 39 41 42 42 43 43 44 45 44 44 44 44 44 43 43 42 42
23 23 24 25 25 25 25 25 26 27 27 28 30 30 30 31 31 31 33 35 37 39 40 42 44 44 45 45 46 46 47 46 45 45 46 45 44 44
25 25 25 26 26 26 27 27 27 28 28 29 30 31 31 31 31 32 33 34 36 38 39 42 43 45 46 46 46 47 48 48 48 47 47 47 46 45
26 27 27 27 28 28 29 29 29 29 29 29 30 31 32 32 32 32 32 33 35 36 38 40 42 44 45 47 47 48 48 50 50 49 49 48 48 48
28 28 29 29 29 30 30 31 31 31 31 31 31 32 33 33 33 33 33 33 34 35 37 39 40 42 44 46 47 48 49 50 51 51 51 50 49 49
29 30 30 31 31 32 32 32 33 33 33 33 33 33 34 34 34 34 34 34 34 35 37 38 40 41 43 45 46 47 48 50 51 52 52 52 52 51
31 31 32 32 33 33 34 34 34 34 34 34 33 34 34 35 35 35 35 35 35 36 37 38 39 40 42 43 45 46 47 49 50 52 53 53 53 52
33 33 34 34 35 35 35 35 35 36 36 36 35 35 35 36 36 36 36 36 36 36 37 37 38 39 41 42 43 45 47 48 50 51 53 54 54 54
35 36 36 36 37 37 37 37 37 37 37 37 36 36 36 37 37 37 37 36 36 36 37 37 38 39 40 41 42 43 45 47 49 50 52 54 54 54
37 37 38 38 38 39 39 39 38 38 38 38 37 37 37 37 38 38 38 38 37 37 38 38 38 39 39 40 41 42 44 45 47 49 51 53 54 54
39 40 40 40 40 40 40 40 40 40 40 39 39 38 38 38 38 38 38 39 38 37 38 39 39 40 40 40 41 42 43 44 46 48 50 52 53 54
42 42 42 42 42 42 42 42 42 42 41 41 40 40 39 38 38 38 39 39 38 38 38 39 40 40 41 40 41 42 42 44 45 46 48 50 52 53
44 44 45 44 44 44 44 44 44 44 43 42 42 41 40 40 39 39 39 39 38 38 38 39 39 40 40 41 41 42 43 43 44 44 46 48 50 52
48 48 48 48 47 47 47 46 46 45 44 44 43 41 41 40 40 39 39 38 38 38 38 39 40 40 41 41 41 42 43 43 43 44 45 47 48 51
51 51 50 50 50 50 49 48 47 46 45 45 43 42 41 40 39 38 38 38 37 36 37 38 39 40 40 40 40 41 42 43 43 44 44 45 47 48
53 52 53 53 52 51 50 49 48 47 46 45 43 42 41 40 39 38 38 38 37 36 36 37 38 39 39 39 39 39 39 41 42 42 43 44 45 46
56 55 55 54 53 52 51 50 48 47 46 44 42 41 40 39 38 38 38 37 36 36 35 35 36 36 36 36 36 37 38 39 40 41 41 42 43 44
57 57 56 54 53 52 51 50 49 47 45 43 41 40 39 38 38 37 36 36 35 34 34 33 33 33 33 33 33 35 36 37 38 39 40 40 41 42
59 58 57 55 53 52 51 49 48 46 44 42 41 39 39 38 37 36 35 35 34 33 32 32 31 31 31 31 32 32 34 35 36 37 39 40 40 41
58 57 56 54 52 50 49 47 45 43 41 40 39 38 37 36 34 34 33 33 32 31 31 30 30 30 30 31 30 31 32 33 34 36 36 38 39 40
54 53 52 50 49 47 46 44 42 40 38 37 36 35 34 34 33 32 31 31 30 30 30 29 29 29 28 29 28 29 30 31 32 33 34 35 37 38
49 48 47 46 44 43 41 40 38 36 35 34 33 33 32 32 31 30 29 29 29 29 28 28 27 27 27 26 26 27 28 30 31 31 31 33 35 35

GEFSNE_500_meanwind_108.txt.gz
Wind_Speed
19 19 20 20 20 20 21 21 21 21 21 21 21 22 22 23 23 24 24 25 26 27 28 28 29 30 31 32 33 34 34 35 36 37 37 37 37 38
21 21 22 22 22 22 23 23 23 23 23 23 23 23 23 24 24 24 25 25 26 27 28 29 30 31 32 33 34 35 35 36 38 39 39 39 39 38
23 23 23 24 24 24 24 24 25 25 25 25 26 25 25 25 25 25 26 26 27 27 28 29 30 31 32 34 35 36 37 38 38 40 41 42 41 40
25 25 25 25 26 26 26 26 26 27 27 27 27 27 27 27 27 27 27 27 27 28 29 29 30 31 32 33 34 36 37 38 39 41 42 43 44 43
27 27 27 27 27 28 28 28 28 28 28 28 28 28 28 28 28 29 29 29 29 29 29 30 30 31 32 33 34 35 36 38 39 41 42 43 44 44
29 29 29 29 29 30 30 30 30 30 29 29 29 30 30 30 30 30 30 30 30 31 31 31 31 32 32 33 34 35 36 37 39 40 41 43 44 45
30 31 31 31 31 31 31 31 31 31 31 31 31 31 32 32 32 31 31 31 32 32 32 32 33 33 33 33 34 35 36 37 38 40 42 43 43 44
32 32 33 33 33 33 33 33 33 33 33 33 33 33 33 34 34 33 33 33 33 34 34 33 34 34 34 35 35 35 35 36 38 39 41 42 44 45
33 34 34 34 34 34 34 34 34 35 35 35 34 34 35 35 36 35 35 35 35 35 36 35 35 35 35 35 35 35 36 36 37 39 39 41 43 44
35 35 35 35 36 36 36 36 36 37 37 37 36 36 37 38 38 38 37 37 37 37 38 37 37 36 36 36 37 37 37 37 38 39 39 40 41 43
37 38 38 37 37 38 38 38 39 39 40 40 39 39 39 39 40 40 40 40 39 39 39 39 38 37 37 37 37 37 37 37 38 38 39 40 41 42
39 40 39 39 39 40 40 41 41 42 43 42 42 41 41 41 41 41 42 42 41 40 40 40 39 38 37 37 37 37 37 37 38 39 39 40 41 42
41 41 41 41 41 42 43 44 44 45 45 45 44 44 44 44 44 43 43 43 42 41 41 41 40 39 38 37 37 37 37 38 38 38 39 40 41 41
44 44 44 45 45 46 46 47 47 48 48 48 47 47 46 45 45 44 44 44 43 42 41 41 40 40 39 38 37 37 38 38 38 38 39 40 41 41
46 47 48 49 50 50 50 50 50 51 51 50 50 49 48 47 47 46 45 44 43 41 40 40 40 40 39 39 38 37 37 38 39 39 40 40 41 42
50 51 51 52 53 53 54 53 53 53 53 53 51 50 49 49 48 47 46 45 43 41 40 40 40 39 39 38 38 37 37 38 39 39 40 40 41 42
54 55 56 56 56 56 56 56 55 54 54 54 53 51 50 50 48 47 46 45 44 42 40 40 39 40 39 38 38 37 38 38 38 38 39 40 40 41
57 57 58 58 58 58 58 57 56 55 55 54 53 52 51 49 48 46 45 44 43 42 40 40 40 39 38 37 37 37 37 36 36 37 38 38 38 38
59 59 59 59 59 59 58 57 56 55 54 53 52 50 49 48 47 45 44 43 42 40 39 39 39 38 38 36 35 37 37 36 35 36 36 37 37 37
60 60 59 59 58 57 55 53 52 51 50 50 48 47 46 46 45 44 42 41 40 39 38 37 38 38 37 36 35 35 35 35 35 35 35 36 36 37
59 58 58 56 55 53 51 50 49 47 46 46 45 45 44 43 41 40 39 37 37 36 36 35 36 36 36 35 33 32 33 34 34 34 34 34 35 35
56 55 54 52 50 49 47 46 45 44 42 42 42 41 41 39 38 37 36 35 35 34 34 34 34 34 34 33 32 32 32 32 33 33 33 33 33 33
53 51 49 48 46 44 44 43 41 40 39 38 38 37 36 35 34 34 33 33 33 33 33 33 32 32 32 32 32 31 30 30 31 31 30 31 31 32

GEFSNE_500_meanwind_114.txt.gz
Wind_Speed
11 12 12 12 12 12 12 13 13 13 14 15 15 16 16 17 17 17 18 18 19 19 19 20 21 22 23 24 25 26 27 28 30 31 32 31 32 34
14 15 15 15 15 15 15 16 15 16 16 17 17 18 19 19 19 19 19 20 20 20 20 21 22 22 23 25 26 27 28 30 31 32 33 34 34 35
17 17 17 18 18 18 18 18 18 18 18 19 19 20 21 21 21 21 22 22 22 22 23 23 23 24 25 25 26 27 29 30 32 33 34 35 36 37
19 20 20 21 21 21 21 21 21 21 21 22 22 22 23 23 23 23 24 24 24 24 24 25 25 25 26 27 27 28 29 31 32 33 35 36 37 38
22 23 23 23 23 23 24 24 24 24 24 25 25 25 25 25 25 25 26 26 26 26 26 27 27 27 28 28 29 29 30 32 33 33 34 36 37 39
25 25 26 25 25 26 26 26 26 27 27 27 28 28 28 28 28 28 28 28 29 29 29 29 29 29 29 30 31 31 32 32 33 35 36 36 37 39
28 28 28 28 28 28 28 28 29 29 30 30 30 30 31 31 30 30 30 30 31 31 31 31 31 31 32 32 32 33 33 33 34 35 36 37 38 39
31 31 31 31 32 31 31 31 31 32 32 33 33 33 33 33 33 33 33 33 32 34 34 33 34 33 34 34 34 34 35 35 36 36 37 38 39 40
33 34 33 33 34 33 34 34 34 35 36 36 35 35 35 36 36 36 36 36 36 37 36 35 36 36 36 36 36 37 37 37 38 38 38 39 40 41
35 36 36 35 35 36 36 36 37 37 37 38 37 37 38 39 40 40 40 40 39 40 40 38 38 38 38 39 39 39 39 39 39 40 40 40 40 41
37 37 37 37 37 37 38 38 38 38 40 40 40 40 41 41 42 43 43 43 42 42 43 42 41 41 41 41 41 41 41 41 41 41 41 42 42 42
38 38 38 39 39 40 40 40 41 41 42 42 42 43 44 45 46 46 47 47 46 44 45 46 45 45 43 43 43 44 43 43 43 42 42 42 43 43
39 39 40 40 41 41 42 43 44 44 43 44 45 46 47 48 48 49 49 49 49 48 48 49 48 48 47 45 45 46 46 45 44 44 44 44 44 43
40 40 41 42 42 43 44 44 45 45 46 47 48 49 49 50 51 52 52 52 52 51 51 52 51 51 51 49 47 47 47 46 46 45 45 45 45 44
41 42 43 44 44 45 45 46 47 48 49 50 50 51 52 52 53 54 54 54 54 55 54 54 54 53 52 51 49 48 48 47 46 45 45 45 45 45
43 44 45 46 47 47 48 49 50 51 52 53 53 54 54 55 55 56 56 57 57 56 55 55 54 54 53 51 50 48 47 46 45 45 44 44 44 45
45 45 46 47 48 49 51 52 54 54 55 56 57 57 57 57 57 58 58 57 56 55 54 54 54 53 53 51 49 48 48 46 46 46 45 44 44 44
47 48 49 50 52 53 54 55 56 57 58 59 59 59 59 58 58 57 57 57 56 55 54 52 52 52 51 50 49 48 47 47 46 46 45 44 43 44
51 52 53 54 55 56 57 58 58 59 59 59 59 58 58 57 57 56 55 55 54 53 51 51 51 50 50 48 47 47 47 46 45 45 44 43 43 43
54 54 55 56 56 57 58 58 58 58 57 57 57 56 55 55 54 53 52 51 50 50 49 49 49 49 48 46 44 43 44 43 43 43 43 43 42 42
55 55 55 56 56 56 56 55 54 53 53 53 53 52 51 50 50 48 47 47 47 46 46 45 44 45 45 44 41 38 40 41 40 40 40 40 40 40
54 54 53 53 53 52 51 50 50 49 49 48 47 45 45 45 44 43 43 42 42 43 42 41 40 40 40 40 38 36 36 37 38 37 37 37 37 37
51 51 50 49 49 48 47 47 45 44 43 42 41 41 41 40 39 38 38 38 38 38 38 37 37 36 36 36 35 34 34 35 35 35 34 34 34 33

GEFSNE_500_meanwind_120.txt.gz
Wind_Speed
13 14 14 14 14 14 15 15 16 16 17 17 17 17 17 17 17 18 18 19 19 20 20 20 20 20 21 21 22 22 23 25 26 27 28 28 29 29
16 17 17 18 18 18 18 18 19 19 19 20 20 20 20 20 20 21 21 21 21 22 22 22 22 22 22 22 23 24 24 25 26 27 29 30 30 31
20 20 20 21 21 22 21 21 22 22 22 22 23 23 24 24 23 24 24 24 24 24 25 25 25 24 24 24 25 25 26 27 27 28 29 30 31 32
23 23 24 24 24 24 24 24 24 24 25 25 25 26 27 27 27 27 27 27 27 27 27 27 27 27 27 27 27 27 28 28 29 29 30 30 31 32
26 26 27 27 27 27 27 27 27 28 28 28 28 28 29 29 30 30 30 30 30 30 30 30 30 30 31 30 30 30 30 30 31 31 31 32 32 33
29 29 29 30 30 30 30 30 30 31 31 32 32 31 31 32 33 33 33 33 33 33 34 34 34 34 34 33 33 33 33 33 33 33 33 34 34 34
31 32 32 33 32 33 33 33 34 34 34 35 35 35 35 36 36 36 36 36 37 37 37 37 37 37 37 37 36 36 36 36 36 36 36 36 36 36
33 34 35 36 36 37 37 36 36 36 37 37 37 38 38 39 39 39 39 39 39 40 40 40 41 40 40 39 39 39 40 40 39 39 39 38 38 38
35 36 37 38 39 38 38 38 37 38 39 39 40 40 41 42 42 42 42 42 42 43 43 42 43 43 43 42 42 42 42 42 42 41 41 40 40 40
38 39 39 40 41 41 40 40 41 41 42 42 42 43 44 45 45 45 45 44 44 44 45 44 44 45 46 46 46 46 46 45 45 44 44 43 43 43
39 40 41 41 42 42 43 42 43 43 44 44 44 45 46 47 48 48 47 47 46 46 47 47 47 48 48 48 49 49 49 48 47 47 46 46 46 46
42 42 43 43 44 45 45 45 45 46 46 46 46 47 48 48 49 50 50 50 49 48 48 50 50 51 50 49 50 51 52 51 51 50 49 49 49 49
43 44 44 45 46 46 46 46 47 48 48 49 48 49 49 50 51 51 52 52 52 51 52 53 53 54 54 53 51 52 54 54 54 53 53 52 52 52
44 45 46 46 46 46 47 47 48 50 51 51 51 51 51 51 52 54 55 55 55 55 55 57 57 57 57 56 55 55 56 56 56 56 56 55 55 54
45 45 46 47 48 49 49 50 51 52 53 52 51 52 53 53 55 56 57 57 58 58 58 59 60 60 60 60 59 58 57 57 57 57 56 55 55 55
47 48 49 50 51 51 52 53 53 53 54 54 54 54 56 56 58 59 59 59 59 59 61 62 63 63 63 62 61 59 58 57 56 56 56 56 55 55
49 50 51 51 52 53 54 54 55 55 56 57 58 58 58 59 59 60 60 61 62 62 62 62 63 63 63 63 61 60 59 58 57 56 56 56 54 54
50 51 52 53 54 55 56 56 56 57 58 59 59 60 60 60 59 60 60 61 61 62 62 62 62 62 62 60 59 58 57 56 56 56 56 55 53 53
51 52 52 53 54 55 56 56 57 58 59 59 59 60 59 59 59 59 60 60 60 60 59 59 59 60 59 57 55 55 55 54 54 53 52 52 51 50
52 53 54 54 55 55 56 57 58 58 59 59 58 58 58 57 58 58 58 57 57 56 56 55 55 56 55 54 52 51 51 50 50 50 50 49 48 47
53 54 55 55 56 56 56 56 56 56 55 54 54 54 54 54 53 53 53 53 53 52 50 49 49 49 49 47 45 43 43 45 46 45 45 44 44 43
53 53 54 55 54 54 53 52 50 49 49 49 49 49 48 47 47 47 47 47 46 46 45 44 43 43 43 42 39 37 37 38 39 39 38 39 39 38
53 53 52 51 49 48 47 46 45 45 45 45 44 43 43 42 43 43 43 42 42 41 40 39 38 38 37 36 35 34 33 33 33 34 34 34 34 33

GEFSNE_500_meanwind_126.txt.gz
Wind_Speed
13 13 14 14 14 15 16 16 17 17 17 18 18 18 19 19 19 19 19 19 19 19 19 19 19 20 20 20 20 20 21 21 21 22 22 23 24 24
16 16 17 17 18 18 19 20 20 20 20 21 21 21 21 22 22 22 22 22 22 22 22 22 22 22 22 22 22 22 23 23 23 24 24 24 25 25
19 20 20 21 21 21 22 23 24 24 24 24 24 25 25 25 25 26 26 26 26 25 26 25 25 25 25 25 25 25 25 25 25 26 26 26 27 27
23 23 23 24 25 25 25 26 27 27 28 28 28 28 28 29 29 29 29 30 29 29 29 29 29 29 29 28 28 28 28 28 28 28 28 29 29 29
26 26 26 27 27 27 28 29 29 30 31 31 31 31 32 32 32 32 33 33 33 33 32 32 32 33 32 32 32 32 32 32 32 31 32 32 32 32
29 29 29 30 31 31 31 31 32 32 33 34 34 34 34 35 35 35 35 35 35 36 36 36 36 36 36 36 36 35 35 35 35 35 35 35 35 35
31 32 32 32 33 34 34 34 35 35 36 36 37 37 38 38 38 38 38 38 39 39 39 39 39 39 39 39 39 39 38 38 38 38 38 38 38 37
34 35 36 35 36 36 37 38 39 39 39 39 40 40 40 41 41 42 42 42 42 42 42 42 43 43 42 42 42 42 41 41 41 41 41 41 41 40
36 37 38 39 40 40 41 42 42 43 43 42 42 42 43 43 43 43 43 43 43 44 45 45 46 45 45 45 45 44 44 43 43 43 43 43 43 43
39 40 40 41 41 43 44 44 44 44 45 44 44 44 45 45 45 45 44 45 45 46 47 47 47 48 48 48 47 47 47 47 47 47 46 46 45 45
39 41 42 42 42 43 45 45 45 45 47 47 47 46 47 46 46 47 48 48 48 48 49 50 49 50 50 50 50 49 49 49 49 49 49 48 48 48
40 41 42 42 43 45 45 45 45 46 47 47 47 48 49 49 49 49 49 50 50 50 51 51 51 52 52 52 52 52 51 51 52 52 51 51 51 50
42 42 43 43 44 45 46 46 46 47 48 49 49 50 51 51 51 52 53 53 53 53 53 54 53 54 54 54 53 53 54 55 55 55 54 53 53 53
44 44 44 45 45 46 47 48 48 49 51 52 53 53 53 53 53 53 54 55 55 55 55 56 56 56 57 56 55 55 56 56 56 56 56 56 55 55
45 45 46 47 47 47 48 49 50 51 52 52 53 54 55 55 56 56 57 57 57 58 58 57 57 57 58 58 57 58 57 57 58 58 57 56 56 55
46 47 47 47 48 49 50 51 52 53 53 54 55 55 55 56 57 58 58 58 58 57 58 58 57 57 57 57 58 57 57 57 58 58 56 55 55 55
47 48 48 49 49 50 50 51 52 52 53 53 54 55 56 57 57 58 58 58 58 58 57 57 57 57 56 56 55 54 54 54 55 56 56 56 56 56
48 49 50 50 50 51 52 53 53 53 54 54 55 55 56 57 57 58 58 57 56 56 56 56 56 55 54 53 53 53 53 53 54 55 55 55 54 54
49 50 51 52 52 53 53 54 54 55 55 55 55 55 55 55 55 55 55 54 54 54 53 53 53 51 51 50 51 52 52 52 53 53 53 53 52 51
51 52 53 54 54 55 55 55 55 55 55 54 53 53 52 52 52 51 51 50 50 49 49 48 48 48 48 48 48 48 49 50 49 49 49 48 47 46
53 54 54 55 55 55 55 55 54 53 52 51 50 49 48 48 47 46 45 45 44 43 43 43 44 44 44 44 44 43 44 44 44 43 42 41 41 40
54 54 54 54 53 52 51 50 50 49 48 46 45 44 43 42 41 40 39 39 39 39 39 39 40 40 40 41 40 39 38 38 38 36 35 35 35 34
52 51 51 50 49 48 47 46 45 44 43 42 41 40 39 38 38 37 38 38 38 37 37 37 37 38 38 37 36 35 34 34 33 32 32 31 30 30

GEFSNE_500_meanwind_132.txt.gz
Wind_Speed
13 13 13 13 13 14 14 15 16 16 16 17 17 17 17 17 18 18 19 19 19 19 19 20 20 20 20 20 20 20 20 20 20 20 20 20 20 20
15 16 16 16 16 17 18 18 19 20 20 20 20 21 21 21 21 22 22 22 22 22 23 23 23 24 24 24 23 23 23 23 23 23 23 22 22 23
18 18 18 19 20 21 21 22 22 23 24 23 23 24 25 25 25 25 25 25 25 25 25 26 26 26 26 27 27 27 27 27 27 26 26 26 26 26
20 21 22 22 23 24 24 24 25 26 26 27 27 27 27 28 28 28 28 28 28 29 29 29 29 29 29 29 30 30 30 30 30 30 30 30 29 29
23 24 25 26 26 27 27 27 28 28 29 30 30 31 30 31 31 32 32 32 32 33 33 33 33 33 33 33 33 33 33 33 33 33 33 33 33 32
25 26 27 28 29 29 29 30 31 31 32 32 33 34 34 35 35 35 35 36 36 36 36 36 36 36 37 36 36 36 36 36 36 36 36 36 36 36
27 28 29 30 30 32 32 33 34 35 36 36 37 37 37 38 37 37 37 37 37 38 38 39 39 39 39 39 38 39 39 39 39 39 39 40 39 39
29 30 31 31 32 33 34 36 37 38 39 40 39 40 40 41 41 41 40 40 40 40 41 41 41 41 41 41 41 41 41 41 42 42 42 42 42 42
31 32 33 34 35 36 37 38 38 39 40 41 41 42 43 43 43 42 43 43 43 43 44 43 44 44 44 43 43 43 43 44 44 44 45 45 45 45
32 33 35 36 37 38 38 38 39 40 41 42 43 44 44 44 45 45 46 46 46 46 48 47 46 47 47 47 46 46 46 46 46 47 47 47 48 48
33 35 36 37 38 39 40 40 41 41 43 44 44 44 45 46 47 48 49 49 48 48 49 50 50 50 50 50 50 49 49 49 49 50 51 50 51 51
35 37 38 39 41 42 42 42 43 43 44 45 45 46 47 47 48 50 50 51 51 51 51 53 53 53 52 51 52 52 52 52 52 52 52 52 52 52
36 38 39 39 40 41 42 43 44 45 46 46 47 47 48 50 51 52 53 54 53 53 53 54 54 55 55 54 53 53 53 53 54 54 53 52 53 53
38 38 39 40 41 41 43 44 45 46 47 48 49 49 51 52 52 52 53 54 55 55 56 57 57 57 57 56 54 54 55 54 54 53 52 51 51 51
39 40 41 42 43 44 45 47 48 49 50 50 51 52 52 53 53 52 52 53 54 54 55 55 56 56 56 55 55 54 54 53 52 52 51 51 51 51
41 42 43 44 46 47 48 50 51 51 52 52 53 53 54 54 54 54 54 55 55 54 53 54 54 55 54 54 54 54 54 53 52 51 52 51 51 51
43 44 46 47 49 50 51 53 53 54 54 54 55 55 56 56 56 56 56 56 56 55 54 54 54 54 54 53 53 52 52 52 51 51 50 50 49 49
46 47 49 51 52 53 53 54 55 55 55 56 57 57 57 56 56 56 55 55 53 52 52 52 52 51 51 50 50 49 47 46 46 47 47 47 46 46
49 51 52 53 54 54 54 55 55 55 56 56 56 55 54 54 53 52 51 50 49 48 48 48 47 47 45 44 43 44 43 42 43 43 43 43 43 42
52 52 53 54 54 54 54 54 54 54 54 53 53 52 51 51 50 49 48 47 47 45 44 43 43 42 41 40 39 39 40 40 39 39 39 40 40 40
52 53 53 53 52 52 52 52 52 51 50 49 49 49 48 47 46 45 44 43 42 41 40 39 39 39 38 37 36 35 36 37 37 37 37 37 38 39
52 52 52 52 52 51 50 50 49 48 47 46 46 45 44 43 43 42 42 41 40 39 37 36 35 34 34 33 33 32 32 33 34 35 35 35 35 34
51 51 50 50 49 48 47 46 46 45 44 43 42 41 41 41 40 40 39 38 37 36 34 33 32 31 31 31 31 30 31 31 31 30 30 31 31 30